Simultaneous Nadir Overpasses (SNOs) Predictions

Prediction of SNOs between METOP-B and NOAA-19 Satellite Orbit:

Table of predicted SNOs for the next 14.0 days since TLE Epoch: 1/25/2013
Index Date (METOP-B) Time (METOP-B) Lat,Lon (METOP-B) SZA (METOP-B ) Date (NOAA-19) Time (NOAA-19) Lat,Lon (NOAA-19) SZA (NOAA-19 ) Distance(km) Time Diff (sec)
1 02/03/2013 20:49:17 -73.41, 41.25 90.18 02/03/2013 20:48:04 -73.41, 40.38 90.11 27.55 73
2 02/03/2013 21:40:02 73.18,-151.93 89.61 02/03/2013 21:39:04 73.20,-151.90 89.65 2.70 58
3 02/03/2013 22:30:43 -73.19, 15.42 90.39 02/03/2013 22:30:04 -73.18, 15.40 90.39 1.39 39
4 02/03/2013 23:21:24 73.16,-177.31 89.58 02/03/2013 23:21:08 73.16,-177.34 89.59 0.94 16
5 02/04/2013 00:12:06 -73.12, -10.07 90.47 02/04/2013 00:12:08 -73.14, -10.04 90.45 2.49 2
6
